Regional Weather Roundup
Issued by NWS

Home | Current Version | Previous Version | Text Only | Print | Product List | Glossary On
Versions: 1 2 3 4 5 6 7 8 9 10 11 12 13 14 15 16 17 18 19 20 21 22 23 24 25 26 27 28 29 30 31 32 33 34 35 36 37 38 39 40 41 42 43 44 45 46 47 48 49 50
000
ASUS43 KBIS 280602
RWRND

NORTH DAKOTA REGIONAL WEATHER ROUNDUP
NATIONAL WEATHER SERVICE BISMARCK ND
100 AM CDT SAT MAY 28 2016

NOTE: "FAIR" INDICATES FEW OR NO CLOUDS BELOW 12,000 FEET WITH NO
SIGNIFICANT WEATHER AND/OR OBSTRUCTIONS TO VISIBILITY.


NDZ001>003-009>011-017-280700-
NORTHWEST NORTH DAKOTA

CITY           SKY/WX    TMP DP  RH WIND       PRES   REMARKS
WILLISTON      CLOUDY    56  53  90 N7        29.86S
6HR MIN TEMP:  56; 6HR MAX TEMP:  66; 6HR PCP: TRACE;

MINOT          CLOUDY    58  54  86 N9        29.87S
MINOT AFB      CLOUDY    56  53  89 NE9       29.87S
$$

NDZ018>021-031>035-040>046-280700-
SOUTHWEST NORTH DAKOTA

CITY           SKY/WX    TMP DP  RH WIND       PRES   REMARKS
BISMARCK       CLOUDY    55  51  86 CALM      29.84R
6HR MIN TEMP:  54; 6HR MAX TEMP:  69;

DICKINSON      CLEAR     50  45  83 E7        29.84R
GARRISON         N/A     57  55  93 E9        29.85R
6HR MIN TEMP:  57; 6HR MAX TEMP:  67;

HETTINGER ARPT CLEAR     45  41  86 CALM      29.87R
$$

NDZ004>008-012>016-024-026-027-054-280700-
NORTHEAST NORTH DAKOTA

CITY           SKY/WX    TMP DP  RH WIND       PRES   REMARKS
GRAND FORKS    CLOUDY    63  58  83 SE12      29.80R
GRND FRKS AFB  CLOUDY    62  61  96 N9        29.80R
DEVILS LAKE    CLOUDY    58  55  90 NE14      29.84S
$$

NDZ022-023-025-028>030-036>039-047>053-280700-
SOUTHEAST NORTH DAKOTA

CITY           SKY/WX    TMP DP  RH WIND       PRES   REMARKS
FARGO          MOCLDY    62  57  83 SE7       29.80R
6HR MIN TEMP:  62; 6HR MAX TEMP:  64; 6HR PCP: TRACE;

JAMESTOWN      CLOUDY    61  56  83 N7        29.80R
$$





USA.gov is the U.S. government's official web portal to all federal, state and local government web resources and services.